Location: Newark
(34.0131°N, 4.3314°W)
Time: 23:36:40
(UTC+00:00)

Transit 2A Rocket - Pass Details

Date: 25 October 2019
Orbit: 594 x 909 km, 66.7° (Epoch: 14 November)

Event Time Altitude Azimuth Distance (km) Brightness Sun altitude
Rises 12:02:21 0° 351° (N) 2,837 7.5 43.9°
Reaches altitude 10° 12:05:17 10° 13° (NNE) 1,934 6.8 43.9°
Maximum altitude 12:08:07 17° 54° (NE) 1,546 6.5 43.9°
Drops below altitude 10° 12:10:59 10° 95° (E) 1,968 7.3 43.8°
Sets 12:14:00 0° 116° (ESE) 2,910 8.2 43.8°
